Текстильщик

Россия / Московская область     55°56′52″N   37°50′04″E
В апреле 2022 года жителям России запретили посещать сайт meteo.paraplan.net по решению Генеральной прокуратуры. Аудитория сайта уменьшилась в 10 раз. Владельцы сайта не видят смысла в поддержке погодного сервера в таких условиях. Сайт будет закрыт в октябре.
темп.,
°C
ветер,
м/с
пор.,
м/с
влажн.,
%
обл.,
%
осадки,
мм/ч
давл.,
гПа
погр.,
м
3 октября, пн
пн300:00+10всв61486100 0.3 1000460
03:00+11в61496100 2.7 997550
06:00+14вюв71596100 5.1 995975
09:00+15вюв81890100 6.6 9931281
12:00+14юв91786100 0.4 9931513
15:00+12ю61285100 1.1 9961195
18:00+9ююв71380100 0.3 9991281
21:00+8ююв81681100 0.7 10011599
4 октября, вт
вт400:00+9ююв71784100 0.4 10031597
03:00+10ююв91578100 0.6 10041271
06:00+9ююв81580100 0.1 10051420
09:00+9ююв81579100 0.1 10061286
12:00+11ююв81572100 0.1 10071673
15:00+9ююз51284100 1.6 10091246
18:00+8ююв51183100 0.4 1009755
21:00+8ююв51087100 0.6 10091120
5 октября, ср
ср500:00+8ююв61088100 1.3 10091132
03:00+7ю2693100 2.4 1009745
06:00+7ю4790100 1.0 1010689
09:00+7ююз2488100 1.3 1011679
12:00+7зюз2385100 0.3 1012465
15:00+7з3584100 0.6 1013492
18:00+6з3685100 0.1 1014411
21:00+5з389298 0.2 1015393
6 октября, чт
чт600:00+4з39959 0.0 1015300
03:00+4зюз259693 0.0 1016143
06:00+6юз2595100 0.1 1015194
09:00+6ю2696100 0.6 1015260
12:00+8ююз2595100 0.0 1015297
15:00+8ююз3798100 0.3 1014322
18:00+9юз3109799 0.4 1013398
21:00+9зюз4139632 0.4 1013479
7 октября, пт
пт700:00+11з4129436 0.1 1014535
03:00+9зсз5129227 0.1 1015627
06:00+8з5129334 0.0 1017557
09:00+9з5118552 0.0 1018734
12:00+9зюз51181100 0.1 10191144
15:00+12з612710 0.1 10181073
18:00+10з511800 0.0 1020648
21:00+8з412880 0.0 1021435